This is the latest recevied weather packets stored in our database for station/object DB0WUN-13. If no packets are shown the sender has not sent any weather packets the latest 10 day(s).
| Time | Temp. | Humidity | Pressure | Rain* | Wind** | Luminosity | Snow |
|---|---|---|---|---|---|---|---|
| 1778002744 | 14.44° C | 77% | 1007.9 hPa | 0.76 mm | - | 0 W/m² | - |
| 1778002711 | 14.44° C | 77% | 1007.9 hPa | 0.51 mm | - | 0 W/m² | - |
| 1778002670 | 14.44° C | 76% | 1007.8 hPa | 0.51 mm | - | 0 W/m² | - |
| 1778002633 | 15° C | 75% | 1007.8 hPa | 0 mm | - | 0 W/m² | - |
| 1778002592 | 15° C | 74% | 1007.8 hPa | 0 mm | - | 0 W/m² | - |
| 1778002408 | 15.56° C | 71% | 1007.8 hPa | 0 mm | - | 0 W/m² | - |
| 1778002350 | 15.56° C | 70% | 1007.7 hPa | 0 mm | - | 0 W/m² | - |
| 1778002285 | 15.56° C | 68% | 1007.7 hPa | 0 mm | - | 0 W/m² | - |
| 1778002232 | 16.11° C | 67% | 1007.8 hPa | 0 mm | - | 0 W/m² | - |
| 1778002168 | 16.11° C | 66% | 1007.8 hPa | 0 mm | - | 0 W/m² | - |
| 1778002103 | 16.67° C | 65% | 1007.8 hPa | 0 mm | - | 0 W/m² | - |
| 1778002045 | 16.67° C | 65% | 1007.6 hPa | 0 mm | - | 0 W/m² | - |
| 1778001984 | 16.67° C | 66% | 1007.7 hPa | 0 mm | - | 0 W/m² | - |
| 1778001924 | 16.67° C | 68% | 1007.6 hPa | 0 mm | - | 0 W/m² | - |
| 1778001861 | 16.67° C | 68% | 1007.4 hPa | 0 mm | - | 0 W/m² | - |
| 1778001795 | 16.67° C | 67% | 1006.9 hPa | 0 mm | - | 5 W/m² | - |
| 1778001737 | 16.67° C | 67% | 1006.6 hPa | 0 mm | - | 5 W/m² | - |
| 1778001673 | 17.22° C | 67% | 1006.6 hPa | 0 mm | - | 7 W/m² | - |
| 1778001619 | 17.22° C | 67% | 1006.6 hPa | 0 mm | - | 7 W/m² | - |
| 1778001556 | 17.22° C | 67% | 1006.5 hPa | 0 mm | - | 7 W/m² | - |
| 1778001486 | 17.22° C | 67% | 1006.4 hPa | 0 mm | - | 7 W/m² | - |
| 1778001427 | 17.22° C | 67% | 1006.5 hPa | 0 mm | - | 7 W/m² | - |
| 1778001372 | 17.22° C | 67% | 1006.4 hPa | 0 mm | - | 7 W/m² | - |
| 1778001318 | 17.22° C | 67% | 1006.5 hPa | 0 mm | - | 7 W/m² | - |
| 1778001255 | 17.22° C | 67% | 1006.5 hPa | 0 mm | - | 7 W/m² | - |
* Rain latest hour (hover to see other rain measurements)
** Current wind speed in m/s (hover to see current wind gust speed)